Weather History for Niagara Falls, NY

Change the Weather History Date:

Friday, March 2, 2012

  Actual Average Record
Temperature  
Mean Temperature 41 °F -  
Max Temperature 48 °F 34 °F 67 °F (1991)
Min Temperature 34 °F 20 °F 3 °F (2003)
Degree Days  
Heating Degree Days 24    
Moisture  
Dew Point 34 °F    
Average Humidity 76    
Maximum Humidity 93    
Minimum Humidity 52    
Precipitation  
Precipitation 0.08 in - - ()
Sea Level Pressure  
Sea Level Pressure 29.73 in    
Wind  
Wind Speed 6 mph (SSE)    
Max Wind Speed 23 mph    
Max Gust Speed 39 mph    
Visibility 8 miles    
Events Rain    
Averages and records for this station are not official NWS values.
T = Trace of Precipitation, MM = Missing Value Source: NWS Daily Summary

Daily Weather History Graph

Daily Weather History Graph

Search for Another Location

Airport:

Trip Planner

Search our weather history database for the weather conditions in past years. The results will help you decide how hot, cold, wet, or windy it might be!

Date:

Astronomy

Mar. 02, 2012 Rise Set
Actual Time 6:49 AM EST 6:06 PM EST
Civil Twilight 6:20 AM EST 6:35 PM EST
Nautical Twilight 5:48 AM EST 7:08 PM EST
Astronomical Twilight 5:15 AM EST 7:41 PM EST
Moon 12:10 PM EST (3/2) 2:45 AM EST (3/2)
Length of Visible Light 12h 14m
Length of Day
11h 17m
Waxing Gibbous, 66% of the Moon is Illuminated
Mar 2
Waxing Gibbous
Mar 8
Full
Mar 14
Last Quarter
Mar 22
New
Mar 30
First Quarter

Hourly Weather History & Observations

Time (EST) Temp. Windchill Dew Point Humidity Pressure Visibility Wind Dir Wind Speed Gust Speed Precip Events Conditions
12:53 AM 35.1 °F 29.3 °F 30.9 °F 85% 29.94 in 10.0 mi SW 6.9 mph - N/A   Overcast
1:53 AM 35.1 °F 30.1 °F 30.9 °F 85% 29.95 in 10.0 mi SW 5.8 mph - N/A   Overcast
2:53 AM 34.0 °F - 30.9 °F 89% 29.96 in 7.0 mi Calm Calm - N/A   Overcast
3:31 AM 35.6 °F - 32.0 °F 87% 29.92 in 7.0 mi Calm Calm - N/A   Overcast
3:49 AM 35.6 °F - 32.0 °F 87% 29.91 in 7.0 mi Calm Calm - N/A   Overcast
3:53 AM 35.1 °F - 32.0 °F 89% 29.95 in 7.0 mi Calm Calm - N/A   Overcast
4:32 AM 35.6 °F - 32.0 °F 87% 29.91 in 6.0 mi Calm Calm - N/A   Overcast
4:53 AM 35.1 °F 32.2 °F 32.0 °F 89% 29.95 in 6.0 mi ESE 3.5 mph - N/A   Overcast
5:53 AM 35.1 °F 32.2 °F 33.1 °F 92% 29.95 in 5.0 mi SSE 3.5 mph - N/A   Overcast
6:53 AM 36.0 °F 31.1 °F 33.1 °F 89% 29.94 in 6.0 mi SSE 5.8 mph - N/A   Overcast
7:05 AM 35.6 °F 30.7 °F 33.8 °F 93% 29.91 in 5.0 mi SSE 5.8 mph - N/A   Overcast
7:53 AM 37.0 °F 33.3 °F 33.1 °F 86% 29.93 in 5.0 mi ESE 4.6 mph - N/A   Overcast
8:53 AM 39.0 °F 32.8 °F 34.0 °F 82% 29.92 in 7.0 mi South 9.2 mph - N/A   Overcast
9:53 AM 41.0 °F 35.8 °F 32.0 °F 70% 29.91 in 7.0 mi SE 8.1 mph - N/A   Overcast
10:53 AM 44.1 °F 38.1 °F 33.1 °F 65% 29.87 in 10.0 mi South 11.5 mph - N/A   Overcast
11:53 AM 46.0 °F 41.4 °F 33.1 °F 61% 29.85 in 10.0 mi SSE 9.2 mph - N/A   Overcast
12:53 PM 46.9 °F - 32.0 °F 56% 29.79 in 10.0 mi SE 8.1 mph - N/A   Overcast
1:53 PM 48.0 °F - 30.9 °F 52% 29.75 in 10.0 mi SSE 3.5 mph - N/A   Overcast
2:53 PM 48.0 °F - 34.0 °F 58% 29.71 in 10.0 mi East 6.9 mph - N/A   Overcast
3:53 PM 48.9 °F - 36.0 °F 61% 29.68 in 10.0 mi ENE 6.9 mph - N/A   Overcast
4:53 PM 48.9 °F - 34.0 °F 56% 29.61 in 10.0 mi ESE 10.4 mph - N/A   Overcast
5:53 PM 48.0 °F - 33.1 °F 56% 29.61 in 10.0 mi SE 11.5 mph - N/A   Overcast
6:53 PM 46.9 °F - 33.1 °F 59% 29.57 in 10.0 mi ESE 8.1 mph - 0.00 in Rain Light Rain
7:53 PM 45.0 °F 39.7 °F 37.0 °F 74% 29.52 in 9.0 mi SE 10.4 mph - 0.01 in Rain Light Rain
8:53 PM 43.0 °F 35.1 °F 39.0 °F 86% 29.44 in 7.0 mi SE 17.3 mph 21.9 mph 0.06 in Rain Light Rain
9:53 PM 43.0 °F 36.4 °F 39.0 °F 86% 29.37 in 7.0 mi SE 12.7 mph 24.2 mph 0.00 in Rain Light Rain
10:25 PM 44.6 °F 37.8 °F 37.4 °F 76% 29.31 in 10.0 mi SSE 15.0 mph 21.9 mph 0.01 in   Overcast
10:42 PM 44.6 °F 37.8 °F 39.2 °F 81% 29.29 in 10.0 mi SSE 15.0 mph - 0.01 in Rain Light Rain
10:53 PM 46.0 °F 38.5 °F 39.0 °F 76% 29.31 in 10.0 mi South 19.6 mph 27.6 mph 0.01 in Rain Light Rain
11:53 PM 46.9 °F - 41.0 °F 80% 29.23 in 10.0 mi South 23.0 mph 39.1 mph 0.00 in   Clear